• în România
  • Lista ţărilor
  • Pe 7 zile
  • Temperatura apei
  • Hartă satelitară
  • Meteo pe hartă
  • Widget-uri
  • user-avatar
    Intrare

    Meteo pe oră la Babanino

    Astăzi, 21 Septembrie, Vineri

    Timp Temperatura Precipitaţii Vânt Presiune Umiditate
    00:00 +16°C° 0 mm 2 m/s 745 mmHg 87%
    01:00 +16°C° 0 mm 2 m/s 745 mmHg 88%
    02:00 +15°C° 0 mm 1 m/s 745 mmHg 89%
    03:00 +15°C° 0 mm 1 m/s 745 mmHg 90%
    04:00 +15°C° 0 mm 1 m/s 745 mmHg 90%
    05:00 +15°C° 0 mm 1 m/s 746 mmHg 91%
    06:00 +14°C° 0 mm 1 m/s 746 mmHg 91%
    07:00 +16°C° 0 mm 1 m/s 746 mmHg 87%
    08:00 +18°C° 0 mm 1 m/s 746 mmHg 82%
    09:00 +19°C° 0 mm 1 m/s 747 mmHg 77%
    10:00 +20°C° 0 mm 2 m/s 747 mmHg 72%
    11:00 +21°C° 0 mm 2 m/s 747 mmHg 66%
    12:00 +24°C° 0 mm 2 m/s 747 mmHg 61%
    13:00 +24°C° 0 mm 2 m/s 747 mmHg 58%
    14:00 +25°C° 0 mm 2 m/s 747 mmHg 55%
    15:00 +25°C° 0 mm 1 m/s 747 mmHg 53%
    16:00 +24°C° 0 mm 1 m/s 747 mmHg 57%
    17:00 +23°C° 0 mm 1 m/s 747 mmHg 61%
    18:00 +22°C° 0 mm 1 m/s 747 mmHg 66%
    19:00 +21°C° 0 mm 1 m/s 747 mmHg 68%
    20:00 +20°C° 0 mm 1 m/s 747 mmHg 71%
    21:00 +19°C° 0 mm 1 m/s 747 mmHg 73%
    22:00 +19°C° 0 mm 1 m/s 747 mmHg 75%
    23:00 +19°C° 0 mm 1 m/s 747 mmHg 76%

    Mâine, 22 Septembrie, Sâmbătă

    Timp Temperatura Precipitaţii Vânt Presiune Umiditate
    00:00 +18°C° 0 mm 1 m/s 747 mmHg 78%
    01:00 +17°C° 0 mm 2 m/s 747 mmHg 79%
    02:00 +16°C° 0 mm 2 m/s 747 mmHg 80%
    03:00 +16°C° 0 mm 2 m/s 747 mmHg 81%
    04:00 +16°C° 0 mm 2 m/s 747 mmHg 82%
    05:00 +16°C° 0 mm 2 m/s 747 mmHg 82%
    06:00 +15°C° 0 mm 2 m/s 747 mmHg 83%
    07:00 +17°C° 0 mm 3 m/s 747 mmHg 79%
    08:00 +18°C° 0 mm 3 m/s 747 mmHg 74%
    09:00 +19°C° 0 mm 3 m/s 747 mmHg 70%
    10:00 +21°C° 0 mm 4 m/s 746 mmHg 65%
    11:00 +22°C° 0 mm 4 m/s 746 mmHg 60%
    12:00 +25°C° 0 mm 5 m/s 746 mmHg 55%
    13:00 +25°C° 0 mm 5 m/s 745 mmHg 54%
    14:00 +26°C° 0 mm 5 m/s 745 mmHg 52%
    15:00 +26°C° 0 mm 5 m/s 745 mmHg 50%
    16:00 +25°C° 0 mm 5 m/s 744 mmHg 55%
    17:00 +23°C° 0 mm 4 m/s 744 mmHg 60%
    18:00 +21°C° 0 mm 4 m/s 744 mmHg 65%
    19:00 +21°C° 0 mm 4 m/s 743 mmHg 64%
    20:00 +20°C° 0 mm 4 m/s 743 mmHg 63%
    21:00 +19°C° 0 mm 5 m/s 743 mmHg 62%
    22:00 +19°C° 0 mm 5 m/s 743 mmHg 62%
    23:00 +19°C° 0 mm 5 m/s 742 mmHg 61%

    Poimâine, 23 Septembrie, Duminică

    Timp Temperatura Precipitaţii Vânt Presiune Umiditate
    00:00 +17°C° 0 mm 5 m/s 742 mmHg 61%
    01:00 +17°C° 0 mm 5 m/s 741 mmHg 62%
    02:00 +17°C° 0 mm 5 m/s 741 mmHg 64%
    03:00 +16°C° 0 mm 5 m/s 740 mmHg 66%
    04:00 +16°C° 0 mm 5 m/s 740 mmHg 66%
    05:00 +16°C° 0 mm 6 m/s 739 mmHg 67%
    06:00 +16°C° 0 mm 6 m/s 739 mmHg 67%
    07:00 +16°C° 0 mm 6 m/s 738 mmHg 66%
    08:00 +17°C° 0 mm 6 m/s 738 mmHg 65%
    09:00 +17°C° 0 mm 6 m/s 737 mmHg 65%
    10:00 +18°C° 0.1 mm 7 m/s 737 mmHg 63%
    11:00 +20°C° 0.1 mm 7 m/s 737 mmHg 62%
    12:00 +21°C° 0.1 mm 7 m/s 737 mmHg 60%
    13:00 +17°C° 0.7 mm 7 m/s 737 mmHg 67%
    14:00 +15°C° 0.7 mm 7 m/s 737 mmHg 73%
    15:00 +12°C° 0.7 mm 8 m/s 737 mmHg 80%
    16:00 +11°C° 0.6 mm 7 m/s 737 mmHg 81%
    17:00 +9°C° 0.6 mm 7 m/s 738 mmHg 83%
    18:00 +8°C° 0.6 mm 6 m/s 738 mmHg 84%
    19:00 +9°C° 0.1 mm 6 m/s 738 mmHg 84%
    20:00 +9°C° 0.1 mm 5 m/s 739 mmHg 84%
    21:00 +9°C° 0.1 mm 5 m/s 739 mmHg 84%
    22:00 +9°C° 0 mm 5 m/s 739 mmHg 85%
    23:00 +8°C° 0 mm 4 m/s 739 mmHg 87%

    24 Septembrie, Luni

    Timp Temperatura Precipitaţii Vânt Presiune Umiditate
    00:00 +8°C° 0 mm 4 m/s 739 mmHg 88%
    01:00 +8°C° 0 mm 4 m/s 740 mmHg 89%
    02:00 +7°C° 0 mm 4 m/s 740 mmHg 90%
    03:00 +8°C° 0 mm 3 m/s 740 mmHg 92%
    04:00 +7°C° 0 mm 4 m/s 740 mmHg 93%
    05:00 +6°C° 0 mm 4 m/s 740 mmHg 93%
    06:00 +6°C° 0 mm 4 m/s 740 mmHg 94%
    07:00 +7°C° 0 mm 4 m/s 741 mmHg 90%
    08:00 +8°C° 0 mm 4 m/s 741 mmHg 86%
    09:00 +10°C° 0 mm 4 m/s 741 mmHg 83%
    10:00 +11°C° 0 mm 4 m/s 741 mmHg 77%
    11:00 +12°C° 0 mm 4 m/s 741 mmHg 71%
    12:00 +14°C° 0 mm 4 m/s 741 mmHg 65%
    13:00 +14°C° 0 mm 4 m/s 741 mmHg 63%
    14:00 +14°C° 0 mm 4 m/s 741 mmHg 61%
    15:00 +16°C° 0 mm 3 m/s 741 mmHg 59%
    16:00 +14°C° 0 mm 3 m/s 740 mmHg 63%
    17:00 +13°C° 0 mm 3 m/s 740 mmHg 67%
    18:00 +13°C° 0 mm 2 m/s 739 mmHg 71%
    19:00 +12°C° 0 mm 3 m/s 739 mmHg 70%
    20:00 +12°C° 0 mm 4 m/s 739 mmHg 69%
    21:00 +12°C° 0 mm 4 m/s 738 mmHg 68%
    22:00 +12°C° 0.3 mm 5 m/s 738 mmHg 68%
    23:00 +11°C° 0.3 mm 6 m/s 737 mmHg 68%

    25 Septembrie, Marţi

    Timp Temperatura Precipitaţii Vânt Presiune Umiditate
    00:00 +10°C° 0.3 mm 7 m/s 736 mmHg 68%
    01:00 +10°C° 1.2 mm 8 m/s 735 mmHg 72%
    02:00 +10°C° 1.2 mm 9 m/s 734 mmHg 75%
    03:00 +8°C° 1.2 mm 9 m/s 733 mmHg 79%
    04:00 +8°C° 1.7 mm 10 m/s 732 mmHg 82%
    05:00 +8°C° 1.7 mm 10 m/s 732 mmHg 85%
    06:00 +8°C° 1.7 mm 10 m/s 731 mmHg 87%
    07:00 +10°C° 0.3 mm 9 m/s 731 mmHg 85%
    08:00 +10°C° 0.3 mm 9 m/s 731 mmHg 83%
    09:00 +10°C° 0.3 mm 8 m/s 730 mmHg 81%
    10:00 +10°C° 0.1 mm 8 m/s 730 mmHg 76%
    11:00 +11°C° 0.1 mm 9 m/s 730 mmHg 72%
    12:00 +11°C° 0.1 mm 9 m/s 730 mmHg 67%
    13:00 +11°C° 0.1 mm 9 m/s 730 mmHg 67%
    14:00 +10°C° 0.1 mm 9 m/s 729 mmHg 67%
    15:00 +10°C° 0.1 mm 9 m/s 729 mmHg 67%
    16:00 +10°C° 0.1 mm 8 m/s 729 mmHg 69%
    17:00 +9°C° 0.1 mm 8 m/s 728 mmHg 70%
    18:00 +9°C° 0.1 mm 7 m/s 728 mmHg 71%
    19:00 +8°C° 0.1 mm 7 m/s 728 mmHg 74%
    20:00 +8°C° 0.1 mm 7 m/s 728 mmHg 76%
    21:00 +8°C° 0.1 mm 7 m/s 728 mmHg 79%
    22:00 +7°C° 0.2 mm 6 m/s 728 mmHg 81%
    23:00 +7°C° 0.2 mm 6 m/s 728 mmHg 82%

    26 Septembrie, Miercuri

    Timp Temperatura Precipitaţii Vânt Presiune Umiditate
    00:00 +7°C° 0.2 mm 5 m/s 728 mmHg 84%
    01:00 +7°C° 0.3 mm 5 m/s 728 mmHg 85%
    02:00 +7°C° 0.3 mm 5 m/s 728 mmHg 87%
    03:00 +7°C° 0.3 mm 5 m/s 729 mmHg 89%
    04:00 +7°C° 0.4 mm 6 m/s 729 mmHg 88%
    05:00 +7°C° 0.4 mm 6 m/s 730 mmHg 88%
    06:00 +5°C° 0.4 mm 7 m/s 731 mmHg 87%
    07:00 +5°C° 0.1 mm 7 m/s 732 mmHg 86%
    08:00 +5°C° 0.1 mm 7 m/s 732 mmHg 84%
    09:00 +5°C° 0.1 mm 8 m/s 733 mmHg 83%
    10:00 +5°C° 0.1 mm 8 m/s 734 mmHg 82%
    11:00 +5°C° 0.1 mm 7 m/s 735 mmHg 81%
    12:00 +5°C° 0.1 mm 7 m/s 736 mmHg 81%
    13:00 +5°C° 0.2 mm 7 m/s 737 mmHg 80%
    14:00 +5°C° 0.2 mm 7 m/s 738 mmHg 80%
    15:00 +5°C° 0.2 mm 7 m/s 739 mmHg 80%
    16:00 +5°C° 0.1 mm 6 m/s 740 mmHg 80%
    17:00 +5°C° 0.1 mm 6 m/s 740 mmHg 80%
    18:00 +6°C° 0.1 mm 5 m/s 741 mmHg 81%
    19:00 +5°C° 0 mm 5 m/s 742 mmHg 81%
    20:00 +5°C° 0 mm 5 m/s 742 mmHg 82%
    21:00 +5°C° 0 mm 5 m/s 743 mmHg 83%
    22:00 +5°C° 0 mm 5 m/s 743 mmHg 84%
    23:00 +3°C° 0 mm 5 m/s 744 mmHg 85%
    Arată mai mult